Regional Weather Roundup
Issued by NWS

Home | Current Version | Previous Version | Graphics & Text | Print | Product List | Glossary On
Versions: 1 2 3 4 5 6 7 8 9 10 11 12 13 14 15 16 17 18 19 20 21 22 23 24 25 26 27 28 29 30 31 32 33 34 35 36 37 38 39 40 41 42 43 44 45 46 47 48 49 50
000
ASUS43 KMKX 230521
RWRWI

WISCONSIN REGIONAL WEATHER ROUNDUP
NATIONAL WEATHER SERVICE MILWAUKEE/SULLIVAN WI
1200 AM CDT WED MAY 23 2018

NOTE: "FAIR" INDICATES FEW OR NO CLOUDS BELOW 12,000 FEET WITH NO
SIGNIFICANT WEATHER AND/OR OBSTRUCTIONS TO VISIBILITY.

WIZ001-002-006>008-014>016-023>028-230600-
NORTHWEST WISCONSIN

CITY           SKY/WX    TMP DP  RH WIND       PRES   REMARKS
SUPERIOR ARPT  FAIR      60  54  81 SW3       30.05R
ASHLAND        FAIR      61  55  81 W7        30.06R
HAYWARD        FAIR      52  50  93 CALM      30.08R
SIREN          FAIR      53  51  94 CALM      30.08R
CUMBERLAND     FAIR      54  52  94 CALM      30.09R
RICE LAKE      FAIR      55  53  96 CALM      30.10R
CHETEK         FAIR      55  55 100 CALM      30.09R FOG
LADYSMITH      FAIR      53  51  92 CALM      30.11R
EAU CLAIRE     FAIR      55  55 100 CALM      30.08R
MENOMONIE      FAIR      57  56  94 E3        30.09R
NEW RICHMOND   FAIR      59  54  83 S3        30.09R
OSCEOLA        FAIR      54  52  92 CALM      30.11R
$$

WIZ003>005-009-010-017-018-230600-
NORTH CENTRAL WISCONSIN

CITY           SKY/WX    TMP DP  RH WIND       PRES   REMARKS
MANITOWISH WTR FAIR      51  51 100 CALM      30.08S
ARBOR VITAE    FAIR      58  55  88 CALM      30.09R
WOODRUFF       FAIR      58  55  88 CALM      30.09R
RHINELANDER    FAIR      56  54  93 NW3       30.09R
EAGLE RIVER    FAIR      53  50  91 CALM      30.08R
LAND O LAKES   FAIR      48  46  90 CALM      30.10R
PHILLIPS       FAIR      53  53 100 CALM      30.09R
TOMAHAWK       FAIR      55  52  92 CALM      30.09S
MEDFORD        FAIR      54  53  97 CALM      30.10R
MERRILL        FAIR      56  56 100 CALM      30.09S
$$

WIZ029-030-035-036-043>047-230600-
CENTRAL WISCONSIN

CITY           SKY/WX    TMP DP  RH WIND       PRES   REMARKS
WAUSAU         FAIR      59  57  93 CALM      30.07S
MOSINEE        FAIR      54  54 100 SW3       30.11R
MARSHFIELD     FAIR      55  55 100 W3        30.09R FOG
STEVENS POINT  FAIR      57  57  99 W5        30.10S
WAUPACA        FAIR      60  59  94 SW5       30.10R
WAUTOMA        FAIR      57  56  96 CALM      30.10S
WISC RAPIDS    FOG       55  54  96 CALM      30.10S VSB 1
CAMP DOUGLAS   FOG       50  50 100 CALM      30.10R VSB 3/8
$$

WIZ011>013-019>022-031-037>040-048>050-230600-
NORTHEAST WISCONSIN

CITY           SKY/WX    TMP DP  RH WIND       PRES   REMARKS
ANTIGO         FAIR      57  56  94 W3        30.09R
SHAWANO        FAIR      64  58  79 SW5       30.06S
OCONTO         FAIR      60  56  86 SW5       30.04R
STURGEON BAY   FAIR      59  54  83 S7        30.06R
GREEN BAY      FAIR      62  58  86 SW3       30.06S
MANITOWOC      FAIR      51  48  89 CALM      30.08S
APPLETON       FAIR      59  54  82 W7        30.07R
CLINTONVILLE   FAIR      62  56  81 CALM      30.07R
OSHKOSH        FAIR      61  57  87 W5        30.08S
$$

WIZ032>034-041-042-053>061-230600-
SOUTHWEST WISCONSIN

CITY           SKY/WX    TMP DP  RH WIND       PRES   REMARKS
LA CROSSE      FAIR      59  56  89 E3        30.09R
SPARTA         FAIR      50  50 100 CALM      30.11R
VIROQUA        FAIR      57  57 100 SE6       30.10S
BOSCOBEL       FOG       55  54  96 CALM      30.10S VSB 1/2
PRAIRIE DU CHI FAIR      60  58  94 SE3       30.10R
PLATTEVILLE    FAIR      59  59 100 E7        30.11S
$$

WIZ056-057-062-063-064-067-068-230600-
SOUTH CENTRAL WISCONSIN

CITY           SKY/WX    TMP DP  RH WIND       PRES   REMARKS
REEDSBURG      FOG       56  56 100 CALM      30.10S VSB 1/2
BARABOO/DELLS    N/A     54  53  94 CALM      30.10S FOG
LONE ROCK      FAIR      56  56 100 CALM      30.10S
MINERAL POINT  FAIR      59  59 100 E5        30.11S
MADISON        FAIR      56  55  97 CALM      30.09S FOG
MIDDLETON      FAIR      56  56 100 CALM      30.10S
WATERTOWN      FAIR      53  53 100 CALM      30.09S
MONROE         FAIR      59  55  88 N5        30.10S
JANESVILLE       N/A     55  55 100 CALM      30.10S FOG
$$

WIZ051-052-058>065-066-070>072-230600-
SOUTHEAST WISCONSIN

CITY           SKY/WX    TMP DP  RH WIND       PRES   REMARKS
MILWAUKEE      FAIR      57  53  86 CALM      30.09S
WAUKESHA       FAIR      52  52 100 CALM      30.11S
MILWAUKEE/TIMM FAIR      55  52  88 CALM      30.09F
RACINE         FAIR      49  48  97 CALM      30.10F
BURLINGTON     FAIR      54  53  97 CALM      30.10S FOG
KENOSHA        FAIR      50  48  93 SW6       30.09F
FOND DU LAC    FAIR      59  56  89 SW5       30.09S
SHEBOYGAN      FAIR      57  55  93 SW3       30.08S
WEST BEND      FAIR      54  54 100 CALM      30.09S
JUNEAU         FOG       56  55  99 CALM      30.10S VSB 1
$$

LSZ147-162-230600-
LAKE SUPERIOR

STATION/POSITION TIME  TEMP    WIND        PRES    WAVE
                       AIR SEA DIR/SP/G            HT/PER
                 (UTC) (F)     (DEG/KT/KT) (MB)    (FT/S)
W MID LAKE BUOY  0450   44 36  160/  8/  8 1017.2S   0
DEVILS ISLAND    0500   68     220/  6/  6 1017.2R
SAXON HARBOR     0440   58     190/  4/  6 1016.9R
$$

LMZ867-665-643>646-230600-
LAKE MICHIGAN

STATION/POSITION TIME  TEMP    WIND        PRES    WAVE
                       AIR SEA DIR/SP/G            HT/PER
                 (UTC) (F)     (DEG/KT/KT) (MB)    (FT/S)
N MID LAKE BUOY  0500   39 37  160/  4/  6 1017.8
NORTHPORT PIER   0440   54     150/  2/  3 1017.3S
KEWAUNEE LAKESHO 0454   52     170/  6/  7 1017.5R
SHEBOYGAN LAKESH 0500   61     260/  7/  9 1018.6R
PORT WASHINGTON  0440   60     290/  4/  7 1019.6S
ATWATER BUOY     0437   54 47     CALM     1018.9F   0
MILWAUKEE LAKESH 0500   60     280/  2/  2   N/A
S MID LAKE BUOY  0450   41 39  270/  2/  4 1019.7R   0
KENOSHA   LAKESH 0500   51                 1019.0
$$

TC  - TEMPERATURE IN CELSIUS
VSB - VISIBILITY IN STATUTE MILES
WCI - WIND CHILL INDEX
HX  - HEAT INDEX




USA.gov is the U.S. government's official web portal to all federal, state and local government web resources and services.